Cherry Point, NC

9:48 AM EDT on May 28, 2017 (GMT -0400)
Cherry Point Marine Corps Air Station

Weather History for KNKT - December, 2013

Change the Weather History Date:

Monday, December 16, 2013

  Actual Average Record
Temperature  
Mean Temperature 46 °F -  
Max Temperature 55 °F 56 °F 73 °F (2011)
Min Temperature 36 °F 36 °F 19 °F (2010)
Degree Days  
Heating Degree Days 20    
Moisture  
Dew Point 32 °F    
Average Humidity 66    
Maximum Humidity 89    
Minimum Humidity 40    
Precipitation  
Precipitation 0.00 in - - ()
Sea Level Pressure  
Sea Level Pressure 30.15 in    
Wind  
Wind Speed 6 mph (WNW)    
Max Wind Speed 12 mph    
Max Gust Speed -    
Visibility 9 miles    
Events      
Averages and records for this station are not official NWS values.
T = Trace of Precipitation, MM = Missing Value Source: NWS Daily Summary

Daily Weather History Graph

Daily Weather History Graph

Search for Another Location

Airport or City:

Trip Planner

Search our weather history database for the weather conditions in past years. The results will help you decide how hot, cold, wet, or windy it might be!

Date:

Astronomy

Dec. 16, 2013 Rise Set
Actual Time 7:08 AM EST 4:57 PM EST
Civil Twilight 6:40 AM EST 5:26 PM EST
Nautical Twilight 6:08 AM EST 5:57 PM EST
Astronomical Twilight 5:38 AM EST 6:28 PM EST
Moon 4:44 PM EST (12/16) 6:17 AM EST (12/16)
Length of Visible Light 10h 45m
Length of Day
9h 49m
Full, 100% of the Moon is Illuminated
Dec 16
Full
Dec 17
Full
Dec 25
Last Quarter
Jan 1
New
Jan 7
First Quarter

Hourly Weather History & Observations

Time (EST) Temp. Windchill Dew Point Humidity Pressure Visibility Wind Dir Wind Speed Gust Speed Precip Events Conditions
12:54 AM 39.9 °F 36.7 °F 32.0 °F 73% 30.07 in 7.0 mi West 4.6 mph - N/A   Clear
1:54 AM 39.0 °F 34.0 °F 30.9 °F 73% 30.08 in 7.0 mi WNW 6.9 mph - N/A   Clear
2:54 AM 37.9 °F 32.7 °F 30.0 °F 73% 30.09 in 10.0 mi NW 6.9 mph - N/A   Clear
3:54 AM 37.0 °F 32.4 °F 30.0 °F 76% 30.09 in 10.0 mi WNW 5.8 mph - N/A   Clear
4:54 AM 36.0 °F 31.1 °F 28.9 °F 76% 30.10 in - WNW 5.8 mph - N/A   Clear
5:54 AM 36.0 °F 31.1 °F 28.9 °F 76% 30.12 in 10.0 mi NW 5.8 mph - N/A   Clear
6:54 AM 36.0 °F 30.3 °F 28.0 °F 73% 30.14 in 10.0 mi NW 6.9 mph - N/A   Clear
7:54 AM 37.9 °F 34.4 °F 28.9 °F 70% 30.16 in 7.0 mi NNW 4.6 mph - N/A   Clear
8:54 AM 43.0 °F 37.2 °F 30.9 °F 62% 30.18 in 10.0 mi NNW 10.4 mph - N/A   Clear
9:54 AM 46.9 °F - 30.0 °F 52% 30.20 in 10.0 mi NNW 11.5 mph - N/A   Clear
10:54 AM 51.1 °F - 30.9 °F 46% 30.19 in 10.0 mi NNW 9.2 mph - N/A   Clear
11:54 AM 54.0 °F - 30.9 °F 41% 30.16 in 10.0 mi NW 8.1 mph - N/A   Clear
12:54 PM 55.0 °F - 32.0 °F 42% 30.14 in 10.0 mi West 10.4 mph - N/A   Clear
1:54 PM 55.9 °F - 32.0 °F 40% 30.13 in 10.0 mi WNW 10.4 mph - N/A   Clear
2:54 PM 55.9 °F - 34.0 °F 44% 30.13 in 10.0 mi WSW 6.9 mph - N/A   Clear
3:54 PM 55.9 °F - 32.0 °F 40% 30.14 in 10.0 mi WSW 9.2 mph - N/A   Clear
4:54 PM 50.0 °F - 35.1 °F 57% 30.15 in 10.0 mi SW 3.5 mph - N/A   Clear
5:54 PM 46.9 °F - 37.9 °F 71% 30.17 in 10.0 mi SW 3.5 mph - N/A   Clear
6:54 PM 45.0 °F - 37.9 °F 76% 30.19 in 10.0 mi Calm Calm - N/A   Clear
7:54 PM 39.0 °F - 36.0 °F 89% 30.18 in 10.0 mi Calm Calm - N/A   Clear
8:54 PM 39.0 °F - 35.1 °F 86% 30.18 in 7.0 mi Calm Calm - N/A   Clear
9:54 PM 37.0 °F - 34.0 °F 89% 30.18 in 7.0 mi Calm Calm - N/A   Clear
10:54 PM 36.0 °F - 33.1 °F 89% 30.20 in - Calm Calm - N/A   Clear
11:54 PM 43.0 °F 40.3 °F 36.0 °F 76% 30.19 in 7.0 mi SW 4.6 mph - N/A   Clear